Gastonia, NC

3:24 PM EST on January 29, 2020 (GMT -0500)
Gastonia Municipal

Weather History for KAKH - November, 2019

Change the Weather History Date:

Thursday, November 14, 2019

  Actual Average (WUND) Record (WUND)
Temperature  
Mean Temperature 35 °F -  
Max Temperature 44 °F - - (-1)
Min Temperature 26 °F - - (-1)
Degree Days  
Heating Degree Days 30    
Moisture  
Dew Point 26 °F    
Average Humidity 62    
Maximum Humidity 78    
Minimum Humidity 45    
Precipitation  
Precipitation 0.00 in - - ()
Sea Level Pressure  
Sea Level Pressure 30.33 in    
Wind  
Wind Speed 3 mph ()    
Max Wind Speed 8 mph    
Max Gust Speed -    
Visibility 10.0 miles    
Events Rain    
Averages and records for this station are not official NWS values.
T = Trace of Precipitation, MM = Missing Value Source: Averaged Metar Reports

Daily Weather History Graph

Daily Weather History Graph

Search for Another Location

Airport or City:

Astronomy

Nov. 14, 2019 Rise Set
Actual Time 6:58 AM EST 5:19 PM EST
Civil Twilight 6:31 AM EST 5:46 PM EST
Nautical Twilight 6:00 AM EST 6:16 PM EST
Astronomical Twilight 5:30 AM EST 6:46 PM EST
Moon 7:07 PM EST (11/14) 8:49 AM EST (11/14)
Length of Visible Light 11h 14m
Length of Day
10h 21m
Waning Gibbous, 95% of the Moon is Illuminated
Nov 14
Waning Gibbous
Nov 19
Last Quarter
Nov 26
New
Dec 4
First Quarter
Dec 12
Full

Hourly Weather History & Observations

Time (EST) Temp. Windchill Dew Point Humidity Pressure Visibility Wind Dir Wind Speed Gust Speed Precip Events Conditions
12:54 AM 27.0 °F - 21.0 °F 78% 30.41 in 10.0 mi Calm Calm - N/A   Clear
1:54 AM 26.1 °F - 19.9 °F 78% 30.39 in 10.0 mi Calm Calm - N/A   Clear
2:54 AM 28.9 °F 25.2 °F 21.0 °F 72% 30.38 in 10.0 mi North 3.5 mph - N/A   Clear
3:54 AM 28.9 °F - 21.0 °F 72% 30.38 in 10.0 mi Calm Calm - N/A   Partly Cloudy
4:54 AM 30.0 °F 26.5 °F 21.0 °F 69% 30.39 in 10.0 mi NNE 3.5 mph - N/A   Overcast
5:54 AM 30.9 °F 25.2 °F 21.9 °F 69% 30.37 in 10.0 mi NE 5.8 mph - N/A   Overcast
6:54 AM 33.1 °F - 21.0 °F 61% 30.39 in 10.0 mi Calm Calm - N/A   Overcast
7:54 AM 34.0 °F 31.0 °F 21.0 °F 59% 30.40 in 10.0 mi NE 3.5 mph - N/A   Overcast
8:54 AM 36.0 °F 33.3 °F 21.0 °F 55% 30.43 in 10.0 mi NNE 3.5 mph - N/A   Overcast
9:54 AM 37.0 °F 33.3 °F 19.9 °F 50% 30.41 in 10.0 mi NE 4.6 mph - N/A   Overcast
10:54 AM 39.0 °F 34.0 °F 19.0 °F 45% 30.40 in 10.0 mi ENE 6.9 mph - N/A   Overcast
12:54 PM 41.0 °F - 21.9 °F 47% 30.35 in 10.0 mi Calm Calm - N/A   Overcast
1:54 PM 42.1 °F - 24.1 °F 49% 30.32 in 10.0 mi Calm Calm - N/A   Overcast
2:54 PM 43.0 °F 39.5 °F 25.0 °F 49% 30.30 in 10.0 mi East 5.8 mph - N/A   Overcast
3:54 PM 44.1 °F - 27.0 °F 51% 30.31 in 10.0 mi Calm Calm - N/A   Overcast
4:54 PM 43.0 °F 39.5 °F 26.1 °F 51% 30.30 in 10.0 mi North 5.8 mph - N/A   Overcast
5:54 PM 42.1 °F 39.2 °F 27.0 °F 55% 30.30 in 10.0 mi North 4.6 mph - N/A   Overcast
6:21 PM 42.1 °F 37.7 °F 28.0 °F 58% 30.27 in 10.0 mi North 6.9 mph - N/A   Overcast
6:54 PM 42.1 °F 40.2 °F 28.9 °F 60% 30.30 in 10.0 mi East 3.5 mph - 0.00 in   Overcast
7:54 PM 42.1 °F 39.2 °F 28.9 °F 60% 30.31 in 10.0 mi NNE 4.6 mph - N/A   Overcast
8:03 PM 43.0 °F 41.3 °F 28.9 °F 58% 30.29 in 10.0 mi NNE 3.5 mph - N/A   Overcast
9:54 PM 41.0 °F 37.1 °F 32.0 °F 70% 30.30 in 10.0 mi NNE 5.8 mph - 0.00 in   Overcast
10:06 PM 42.1 °F 38.4 °F 30.9 °F 65% 30.28 in 10.0 mi North 5.8 mph - N/A   Overcast
10:34 PM 41.0 °F 39.0 °F 32.0 °F 70% 30.29 in 10.0 mi SSE 3.5 mph - 0.00 in Rain Light Rain
10:42 PM 41.0 °F - 32.0 °F 70% 30.28 in 10.0 mi Calm Calm - 0.00 in   Overcast
10:54 PM 41.0 °F 39.0 °F 32.0 °F 70% 30.29 in 10.0 mi North 3.5 mph - 0.00 in   Mostly Cloudy
11:10 PM 41.0 °F 39.0 °F 32.0 °F 70% 30.27 in 10.0 mi NNE 3.5 mph - N/A   Scattered Clouds
11:49 PM 41.0 °F 36.4 °F 32.0 °F 70% 30.28 in 10.0 mi NNE 6.9 mph - N/A   Mostly Cloudy
11:54 PM 41.0 °F 35.8 °F 32.0 °F 70% 30.29 in 10.0 mi NNE 8.1 mph - N/A   Overcast